AA6MV Weather Reports


Display with metric or nautical units.
time (UTC)temp
F
wind
direction
speed
MPH
gust
MPH
rain 1hr
in
rain 24hr
in
rain mn
in
humidity
%
barometer
mb
20260505204554 69 15 11.0 20.0 0.00 0.07 0.07 36 1003.5
20260505203052 68 359 9.0 21.0 0.00 0.07 0.07 37 1003.6
20260505201555 68 19 3.0 14.0 0.00 0.07 0.07 43 1003.7
20260505200041 67 2 7.0 14.0 0.00 0.07 0.07 44 1004.0
20260505194538 66 27 7.0 14.0 0.00 0.07 0.07 49 1004.3
20260505193035 64 40 1.0 13.0 0.00 0.07 0.07 52 1004.6
20260505191534 64 35 2.0 6.0 0.00 0.07 0.07 55 1004.8
20260505190038 62 39 0.0 4.0 0.00 0.07 0.07 60 1005.0
20260505184532 61 157 0.0 0.0 0.00 0.07 0.07 63 1005.3
20260505183041 60 95 0.0 0.0 0.00 0.07 0.07 63 1005.4
20260505181533 59 89 0.0 0.0 0.00 0.07 0.07 63 1005.7
20260505180013 59 61 0.0 0.0 0.00 0.07 0.07 64 1005.6
20260505174511 59 51 0.0 0.0 0.00 0.07 0.07 65 1005.6
20260505173010 59 77 0.0 0.0 0.00 0.07 0.07 66 1005.5
20260505171525 58 32 0.0 2.0 0.00 0.07 0.07 67 1005.5
20260505170000 58 95 0.0 0.0 0.00 0.07 0.07 70 1005.4
20260505164601 58 94 0.0 0.0 0.00 0.07 0.07 70 1005.4
20260505163057 58 328 0.0 0.0 0.00 0.07 0.07 73 1005.2
20260505161618 56 51 0.0 0.0 0.00 0.07 0.07 76 1005.4
20260505153054 53 4 0.0 1.0 0.01 0.07 0.07 78 1005.2
20260505151554 53 351 0.0 4.0 0.01 0.07 0.07 79 1004.7
20260505124557 54 247 0.0 0.0 0.01 0.01 0.01 64 1003.4
20260505124506 54 243 0.0 0.0 0.01 0.01 0.01 64 1003.5
20260505123053 55 254 0.0 0.0 0.00 0.00 0.00 64 1003.6
20260505121551 55 291 0.0 0.0 0.00 0.00 0.00 59 1003.7
20260505120045 56 341 0.0 0.0 0.00 0.00 0.00 54 1004.0
20260505114518 56 316 0.0 0.0 0.00 0.00 0.00 52 1004.0
20260505113015 56 352 0.0 0.0 0.00 0.00 0.00 51 1004.2
20260505111517 56 295 0.0 0.0 0.00 0.00 0.00 49 1003.9
20260505101532 57 13 0.0 0.0 0.00 0.00 0.00 44 1004.7
20260505100030 57 13 0.0 0.0 0.00 0.00 0.00 43 1004.8
20260505094642 58 13 0.0 0.0 0.00 0.00 0.00 42 1004.9
20260505093032 58 12 0.0 0.0 0.00 0.00 0.00 41 1005.1
20260505091529 58 66 0.0 0.0 0.00 0.00 0.00 42 1005.3
20260505090137 58 47 0.0 0.0 0.00 0.00 0.00 42 1005.2
20260505084526 58 6 0.0 0.0 0.00 0.00 0.00 42 1005.5
20260505083146 58 7 0.0 0.0 0.00 0.00 0.00 42 1005.6
20260505081539 57 12 0.0 0.0 0.00 0.00 0.00 44 1006.0
20260505080038 57 266 0.0 0.0 0.00 0.00 0.00 46 1005.5
20260505074642 57 266 0.0 0.0 0.00 0.00 0.00 47 1006.0
20260505073111 57 265 0.0 0.0 0.00 0.00 0.00 48 1006.3
20260505071600 58 122 0.0 0.0 0.00 0.00 0.00 46 1006.1
20260505070052 58 122 0.0 0.0 0.00 0.00 0.00 44 1006.0
20260505064547 58 122 0.0 0.0 0.00 0.00 0.00 42 1006.1
20260505063153 59 122 0.0 0.0 0.00 0.00 0.00 42 1006.0
20260505061550 59 122 0.0 0.0 0.00 0.00 0.00 42 1006.2
20260505060022 59 122 0.0 0.0 0.00 0.00 0.00 41 1006.1
20260505054535 60 122 0.0 0.0 0.00 0.00 0.00 40 1006.0
20260505053046 60 122 0.0 0.0 0.00 0.00 0.00 39 1006.1
20260505051520 60 98 0.0 0.0 0.00 0.00 0.00 39 1006.4
20260505041522 62 117 0.0 3.0 0.00 0.00 0.00 36 1005.9
20260505040021 62 120 0.0 2.0 0.00 0.00 0.00 36 1005.5
20260505034515 62 110 0.0 2.0 0.00 0.00 0.00 35 1005.8
20260505031548 63 103 0.0 2.0 0.00 0.00 0.00 32 1005.2
20260505030033 64 108 0.0 1.0 0.00 0.00 0.00 31 1004.9
20260505024535 65 111 0.0 6.0 0.00 0.00 0.00 30 1004.7
20260505021642 69 37 0.0 0.0 0.00 0.00 0.00 29 1004.0
20260505020034 69 40 0.0 0.0 0.00 0.00 0.00 28 1003.8
20260505014528 70 32 0.0 8.0 0.00 0.00 0.00 28 1004.0
20260505013019 71 32 4.0 10.0 0.00 0.00 0.00 27 1004.1
20260505011530 72 44 4.0 10.0 0.00 0.00 0.00 27 1003.9
20260505004537 71 1 3.0 12.0 0.00 0.00 0.00 24 1004.1
20260505003016 71 37 5.0 13.0 0.00 0.00 0.00 23 1004.4
20260505001517 72 67 6.0 15.0 0.00 0.00 0.00 23 1004.2
20260504234521 72 30 8.0 14.0 0.00 0.00 0.00 20 1004.4
20260504233030 73 43 4.0 11.0 0.00 0.00 0.00 22 1004.3
20260504231518 73 36 6.0 12.0 0.00 0.00 0.00 22 1004.3
20260504224545 73 19 6.0 18.0 0.00 0.00 0.00 20 1004.1
20260504223043 73 42 8.0 16.0 0.00 0.00 0.00 19 1004.2
20260504221558 73 25 7.0 14.0 0.00 0.00 0.00 20 1004.0
20260504220047 73 23 8.0 15.0 0.00 0.00 0.00 19 1004.5
20260504214655 74 32 8.0 19.0 0.00 0.00 0.00 20 1004.6
20260504213147 74 13 9.0 20.0 0.00 0.00 0.00 20 1004.6
20260504211507 74 39 10.0 16.0 0.00 0.00 0.00 21 1004.6
20260504210007 74 358 2.0 12.0 0.00 0.00 0.00 23 1004.9